Location: Goettingen
(51.5300°N, 9.9433°E)
Time: 22:19:36
(UTC+02:00)

ISS - Pass Details

Date: 26 October 2020
Orbit: 418 x 420 km, 51.6° (Epoch: 20 October)

Event Time Altitude Azimuth Distance (km) Brightness Sun altitude
Exits shadow 05:07:10 16° 187° (S) 1,189 -1.6 -18.7°
Maximum altitude 05:08:52 23° 146° (SE) 942 -1.7 -18.4°
Drops below altitude 10° 05:11:35 10° 92° (E) 1,498 0.3 -18.0°
Sets 05:13:57 0° 77° (ENE) 2,365 1.7 -17.6°
